JCSAT 2B

Last updated on Tue Mar 31 2020 04:58:53 GMT+0000 (Coordinated Universal Time)

1 41471U 16028A 20090.73566517 -.00000167 00000-0 00000-0 0 9990 2 41471 0.0177 180.7481 0002019 180.8415 245.8142 1.00270820 14351
UTC large
Height (km)
Speed (km/s)
/
Latitude / Longitude
Inclination (degrees)
Orbital Period (minutes)
Azimuth
Elevation
Range (km)
Doppler Factor

Next 0 passes for location: London (51.5072 / 0.1276)

Sorry there are no passes over London.
JCSAT 2B